Volver al catálogo

STARLINK-32847

ActivoComunicacionesVLEO
NORAD 62811·PAYLOAD·🇺🇸 United States

Lanzado Jan 24, 2025 desde Vandenberg Space Force Base

Loading…

Próximos Pases (próximas 24 horas)

TLE

ActualizadoSource: CelesTrak SupGP

Época: Sep 15, 2026, 02:57 UTC

1 62811C 25018F   26258.12340278  .00055500  00000+0  16392-2 0  2589
2 62811  53.1575 148.9272 0001313  81.6728 235.0997 15.34373398    11

Sigue STARLINK-32847 en tiempo real con AllMySat

Download on the App Store